Погода в Эн-Набатии

Ливан     33°23′28″N   35°28′22″E
темп.,
°C
ветер,
м/с
пор.,
м/с
влажн.,
%
обл.,
%
осадки,
мм/ч
давл.,
гПа
погр.,
м
9 декабря, чт
чт923:00+11з71188100 5.6 1017676
02:00+11з598693 10.4 1018518
05:00+11зсз258975 3.3 1020305
08:00+12з457845 4.3 1022259
11:00+14з456981 1.5 10221008
14:00+15з336060 1.9 10221260
17:00+13зюз117745 0.1 102340
20:00+11вюв22770 0.3 102520
10 декабря, пт
пт1023:00+11вюв22740 0.0 102515
02:00+10в32690 0.0 102516
05:00+10в33644 0.0 102419
08:00+12в33612 0.0 102572
11:00+16св12455 0.0 1023590
14:00+17зсз214959 0.0 1021427
17:00+13всв1168100 0.0 102119
20:00+13в445465 0.0 102052
11 декабря, сб
сб1123:00+13в4455100 0.0 102044
02:00+13в5452100 0.0 101948
05:00+13в44491 0.0 101834
08:00+14в44470 0.0 101963
11:00+19юв13340 0.0 1019534
14:00+19юз22390 0.0 1018582
17:00+15с11540 0.0 101918
20:00+14вюв22470 0.0 102013
12 декабря, вс
вс1223:00+14в33400 0.0 102016
02:00+14в33380 0.0 102015
05:00+14в33370 0.0 101913
08:00+16в33370 0.0 102025
11:00+20ююз0226100 0.0 1020445
14:00+20зюз123384 0.0 1018439
17:00+16всв1150100 0.0 101814
20:00+16в324127 0.0 101919
13 декабря, пн
пн1323:00+15в3338100 0.0 101822
02:00+14в2239100 0.0 101814
05:00+14в2239100 0.0 101712
08:00+16вюв1141100 0.0 101714
11:00+19юз223281 0.0 1016519
14:00+18з3248100 0.0 1015616
17:00+14з1178100 0.0 101520
20:00+14юз1176100 0.0 101522